Regional Weather Roundup
Issued by NWS

Home | Current Version | Previous Version | Graphics & Text | Print | Product List | Glossary On
Versions: 1 2 3 4 5 6 7 8 9 10 11 12 13 14 15 16 17 18 19 20 21 22 23 24 25 26 27 28 29 30 31 32 33 34 35 36 37 38 39 40 41 42 43 44 45 46 47 48 49 50
530
ASUS43 KDTX 212310
RWRMI
MICHIGAN HOURLY REGIONAL WEATHER ROUNDUP
NATIONAL WEATHER SERVICE DETROIT/PONTIAC MI
ISSUED BY NATIONAL WEATHER SERVICE GRAND RAPIDS MI
600 PM EST TUE FEB 21 2017

NOTE: "FAIR" INDICATES FEW OR NO CLOUDS BELOW 12,000 FEET WITH NO
SIGNIFICANT WEATHER AND/OR OBSTRUCTION TO VISIBILITY.

MIZ047>049-052>055-059>063-066>070-074>076-081>083-220000-
SOUTHEAST LOWER MICHIGAN

CITY           SKY/WX    TMP DP  RH WIND       PRES   REMARKS
ADRIAN         CLOUDY    55  49  80 W3        29.95S
ALMA           PTCLDY    53  47  78 CALM      29.91S
ANN ARBOR      CLOUDY    56  49  77 S8        29.93S
BAD AXE        CLOUDY    48  46  93 SW3       29.92R FOG
DETROIT CITY   CLOUDY    54  45  71 S8        29.94R
DETROIT        CLOUDY    55  48  77 S6        29.94F
FLINT          PTCLDY    55  50  83 W9        29.92R
GROSSE ILE     CLOUDY    46  42  86 CALM      29.93S
HILLSDALE      CLOUDY    55  50  82 S5        29.94R
HOWELL         MOCLDY    58  50  75 CALM      29.92R

CITY           SKY/WX    TMP DP  RH WIND       PRES   REMARKS
JACKSON        CLOUDY    60  50  69 SW9       29.93R
LANSING        CLOUDY    56  50  80 W14G20    29.93R
MASON          CLOUDY    59  53  80 W3        29.92R
MONROE         CLOUDY    55  50  82 SW3       29.93F
MT. CLEMENS    MOCLDY    47  42  85 CALM      29.91R
PONTIAC        MOCLDY    57  50  77 CALM      29.91R
PORT HOPE        N/A     50  46  86 CALM      29.89R
PORT HURON     PTCLDY    50  43  76 CALM      29.93R
TRI CITIES     CLOUDY    53  49  86 SW5       29.91S
YPSILANTI      CLOUDY    57  49  74 S8        29.94S
$$
MIZ043>046-050>051-056>058-064>065-071>073-077>080-220000-
SOUTHWEST LOWER MICHIGAN

CITY           SKY/WX    TMP DP  RH WIND       PRES   REMARKS
BATTLE CREEK   CLOUDY    59  52  77 W6        29.93R
BENTON HARBOR  MOCLDY    57  51  80 CALM      29.92S
BIG RAPIDS     CLEAR     56  40  55 CALM      29.89R
COLDWATER      CLOUDY    58  51  76 S3        29.94R
HOLLAND        CLOUDY    53  49  86 CALM      29.93S
GRAND RAPIDS   CLOUDY    53  48  83 SW8       29.92R
KALAMAZOO      PTCLDY    59  50  72 W6        29.93R
MARSHALL       PTCLDY    59  52  77 SW5       29.92R
MOUNT PLEASANT PTCLDY    54  46  74 S3        29.89S
MUSKEGON       PTCLDY    49  43  80 SW3       29.92S
STURGIS        MOCLDY    57  52  83 CALM      29.93S
$$
MIZ016>042-220000-
NORTHERN LOWER MICHIGAN

CITY           SKY/WX    TMP DP  RH WIND       PRES   REMARKS
ALPENA         CLEAR     48  39  71 E9        29.87R
BEAVER ISLAND  CLEAR     45  39  80 SW10      29.84S
BELLAIRE       CLEAR     52  38  58 CALM      29.87S
CADILLAC       CLEAR     52  39  60 SW5       29.87R
CHARLEVOIX     CLEAR     49  38  65 SW5       29.88F
GAYLORD        CLEAR     52  34  50 W5        29.86R
HOUGHTON LAKE  CLEAR     50  39  66 SW5       29.88S
MANISTEE       CLEAR     49  39  68 W6        29.89R
OSCODA         CLEAR     49  41  73 SW7       29.88R
PELLSTON       CLEAR     48  37  65 SW5       29.86R
TRAVERSE CITY  PTCLDY    57  35  43 SW5       29.86R
LUDINGTON      CLEAR     47  42  82 SW3       29.90R
$$
MIZ007>008-015-220000-
EASTERN UPPER MICHIGAN

CITY           SKY/WX    TMP DP  RH WIND       PRES   REMARKS
KINROSS        FOG       38  37  97 SE5       29.83S VSB 1/4 WCI  34
MACKINAC ISLAN CLEAR     42  42  97 W9G17     29.84R
NEWBERRY       CLEAR     46  37  70 S6        29.81R
S. S. MARIE    CLEAR     43  34  70 CALM      29.83R
$$
MIZ004>006-011>014-085-220000-
CENTRAL UPPER MICHIGAN

CITY           SKY/WX    TMP DP  RH WIND       PRES   REMARKS
MANISTIQUE     CLEAR     41  37  88 S8        29.82R
ESCANABA       CLEAR     45  36  70 S9        29.81S
MENOMINEE      CLEAR     56  36  47 SW6       29.83S
SAWYER-GWINN   CLEAR     52  30  43 S6        29.78F
$$
MIZ001>003-009>011-084-220000-
WESTERN UPPER MICHIGAN

CITY           SKY/WX    TMP DP  RH WIND       PRES   REMARKS
IRON MOUNTAIN  CLEAR     54  28  36 S6        29.77F
HOUGHTON       PTCLDY    47  31  53 NW3       29.74F
COPPER HARBOR    N/A     41  33  73 CALM      29.75S
IRONWOOD       PTCLDY    52  28  39 S7        29.71F
$$

ABBREVIATIONS USED IN REMARKS
   TC - TEMPERATURE IN CELSIUS
  WCI - WIND CHILL INDEX
   HX - HEAT INDEX
  VSB - VISIBILITY





USA.gov is the U.S. government's official web portal to all federal, state and local government web resources and services.